Regional Weather Roundup
Issued by NWS Bismarck, ND

Home | Current Version | Previous Version | Text Only | Print | Product List | Glossary On
Versions: 1 2 3 4 5 6 7 8 9 10 11 12 13 14 15 16 17 18 19 20 21 22 23 24 25 26 27 28 29 30 31 32 33 34 35 36 37 38 39 40 41 42 43 44 45 46 47 48 49 50
000
ASUS43 KBIS 041710
RWRBIS

NWR BROADCAST TEXT
NATIONAL WEATHER SERVICE BISMARCK ND
1200 PM CDT FRI SEP 04 2015

NOTE: "FAIR" INDICATES FEW OR NO CLOUDS BELOW 12,000 FEET WITH NO
SIGNIFICANT WEATHER AND/OR OBSTRUCTIONS TO VISIBILITY.


CITY           SKY/WX    TMP DP  RH WIND       PRES   REMARKS
WILLISTON      CLOUDY    66  52  60 N21G28    29.87F
MINOT          CLOUDY    71  62  73 N15       29.80F
MINOT AFB      NOT AVBL
BISMARCK       CLOUDY    76  71  85 SE8       29.80R
DICKINSON      CLOUDY    69  63  81 N9        29.82F
GARRISON         N/A     70  61  73 NE12      29.80F
HETTINGER ARPT MOSUNNY   78  61  55 NW13      29.82R
JAMESTOWN      TSTM      73  66  78 W9        29.78R
CROSBY         CLOUDY    63  50  63 N17       29.90R
HARVEY         CLOUDY    73  72  94 NW8       29.79R
HAZEN          CLOUDY    68  64  88 NE12      29.81R
LINTON         PTSUNNY   75  68  78 S12       29.80R
OAKES            N/A     72  72 100 S13G21    29.81R
RUGBY          CLOUDY    73  72  94 NW14      29.80R
STANLEY        CLOUDY    61  61 100 N6        29.86F
$$

CITY           SKY/WX    TMP DP  RH WIND       PRES   REMARKS
GRAND FORKS    CLOUDY    75  73  93 SE5       29.77R
GRAND FORKS AF CLOUDY    76  72  86 SE6       29.78S
DEVILS LAKE    CLOUDY    77  66  69 SE8       29.78R
FARGO          CLOUDY    83  71  67 S14       29.79R
CAVALIER       CLOUDY    75  72  88 E6        29.77F THUNDER FOG
GRAFTON        CLOUDY    77  73  88 SE8       29.79F
GWINNER          N/A     73  73 100 S8        29.83R
LANGDON        PTSUNNY   81  73  78 E7        29.81F
ROLLA          CLOUDY    61  61 100 N14G20    29.86R FOG
WALHALLA       FAIR      73  73 100 MISG      29.78F
$$

CITY           SKY/WX    TMP DP  RH WIND       PRES   REMARKS
ABERDEEN       CLOUDY    74  68  81 S8        29.82S
MOBRIDGE       PTSUNNY   79  69  71 CALM      29.78R
BUFFALO          N/A     74  61  63 N7        29.78F
RAPID CITY     SUNNY     81  56  42 VRB3      29.83S
GLASGOW        MOSUNNY   67  44  43 NE17G26   29.91F
SIDNEY         CLOUDY    64  52  63 N17         N/A
WOLF POINT     PTSUNNY   70  49  47 N16       29.89F
GLENDIVE       CLOUDY    68  52  56 N10       29.88R
MILES CITY     CLOUDY    65  48  54 SW7       29.89R
BAKER          CLOUDY    67  53  61 NW9       29.88R
$$

CITY           SKY/WX    TMP DP  RH WIND       PRES   REMARKS
BILLINGS       MOSUNNY   59  44  57 NE7       29.95F
GREAT FALLS    RAIN      50  48  93 SE3       30.00R FOG
REGINA         LGT RAIN  54  50  87 N13G18    30.03R
ESTEVAN        CLOUDY    66  54  63 NW15      29.89S
$$




USA.gov is the U.S. government's official web portal to all federal, state and local government web resources and services.